STARLINK-1443, 45660

Orbit data source: Space-Track

STARLINK-1443, 45660 is a payload satellite owned by SpaceX/Seattle (US) in LEO that was launched on Thu, 04 Jun 2020 UTC via an FALCON 9 launch vehicle from the Air Force Eastern Test Range (AFETR). Payload-class satellites include a variety of spacecraft equipped with specific instruments for various scientific and technological missions. These include communications satellites like Starlink; space stations such as the ISS; scientific satellites like the Hubble; Earth observation satellites from companies like Planet Labs, Umbra, and HawkEye 360; GPS; miniature CubeSats for education and research; and military/defense satellites.

Loading next visibility...
Identifier
45660, 2020-035D
Orbit
LEO
Country
Flag of USUS
Related business
Manufacturer
SpaceX/Seattle
Mission
Operational Commercial Communications
Bus & Motor
STARLINK, Unknown motor
Mass
260 kg wet, ~248 kg dry
Launch date (UTC)
2020-06-04 (5 years ago)
Launch vehicle
FALCON 9
Launch site
Air Force Eastern Test Range (AFETR)
Object type
Payload
Rocket body
Debris
Shape & HBR
Box + 1 Pan, 10.1 m
Radar Cross Section
13.562 m², Large (>1 m²)

Expand to show TLE details & history
Last TLE update: 12 hours ago

TLE from 12 hours ago
0 STARLINK-1443
1 45660U 20035D   25287.92605940  .00009517  00000-0  65730-3 0  9996
2 45660  53.0558   0.9794 0001352 101.2599 258.8542 15.06379481296764
Epoch: 2025-10-14T22:13Z
TLE epoch observation values (Epoch: 2025-10-14T22:13:31.532Z)
Latitude
-0°
Longitude
3.89053°
Altitude
548.335 km
Speed
7.589 km/s
True Right ascension
00h 03m 55s
True Declination
0° 00' 00"
Sunlit
Object was in full shadow at epoch
Visualization orbit readout
Latitude
Unknown
Longitude
Unknown
Altitude
Unknown
Speed
Unknown
Apparent Right ascension
Unknown
Apparent Declination
Unknown
Sunlit
N/A
Visualization observer readout
Local Sidereal Time
04:40:56
Azimuth
Unknown
Elevation
Unknown
Doppler factor
Unknown
Orbital elements
Apogee altitude
548.481 km
Perigee altitude
546.609 km
Semi-major axis
6,925.682 km
Eccentricity
0.00014
Inclination
53.0558°
RAAN
0.9794°
Arg. of periapsis
101.2599°
True anomaly
258.839°
Mean anomaly
258.8542°
Eccentric anomaly
258.8466°
Mean motion
3.76573 °/min
Orbital period
95.6 mins
BSTAR
0.0006573
Loading maneuver chart data...
Computing Atmospheric mass density...
Loading historical data...
Loading historical data...
Loading historical data...
Loading historical data...
Loading historical data...
Loading historical data...
Loading historical data...

Documentation

Showing up to 5 results
|